Time,TemperatureF,DewpointF,PressureIn,WindDirection,WindDirectionDegrees,WindSpeedMPH,WindSpeedGustMPH,Humidity,HourlyPrecipIn,Conditions,Clouds,dailyrainin,SoftwareType,DateUTC
2013-03-31 00:00:00,49.4,38.5,31.31,NNW,340,0.0,0.0,66,0.00,,---,0.00,VWS V14.01,2013-03-31 07:00:00,
2013-03-31 00:05:00,49.4,38.1,31.32,NNW,346,0.0,0.0,65,0.00,,---,0.00,VWS V14.01,2013-03-31 07:05:00,
2013-03-31 00:10:00,49.4,38.1,31.32,NNW,340,0.0,0.0,65,0.00,,---,0.00,VWS V14.01,2013-03-31 07:10:00,
2013-03-31 00:15:00,49.4,38.1,31.32,NNW,342,0.0,0.0,65,0.00,,---,0.00,VWS V14.01,2013-03-31 07:15:00,
2013-03-31 00:20:00,49.2,38.0,31.32,NNW,336,0.0,0.0,65,0.00,,---,0.00,VWS V14.01,2013-03-31 07:20:00,
2013-03-31 00:25:00,49.2,38.0,31.32,NNW,346,0.0,0.0,65,0.00,,---,0.00,VWS V14.01,2013-03-31 07:25:00,
2013-03-31 00:31:00,49.1,37.9,31.32,NNW,348,0.0,0.0,65,0.00,,---,0.00,VWS V14.01,2013-03-31 07:31:00,
2013-03-31 00:36:00,48.9,37.7,31.32,NNW,344,0.0,0.0,65,0.00,,---,0.00,VWS V14.01,2013-03-31 07:36:00,
2013-03-31 00:41:00,48.9,37.7,31.32,NNW,342,0.0,0.0,65,0.00,,---,0.00,VWS V14.01,2013-03-31 07:41:00,
2013-03-31 00:46:00,48.9,37.7,31.32,NNW,344,0.0,0.0,65,0.00,,---,0.00,VWS V14.01,2013-03-31 07:46:00,
2013-03-31 00:51:00,48.9,37.7,31.32,NNW,342,0.0,0.0,65,0.00,,---,0.00,VWS V14.01,2013-03-31 07:51:00,
2013-03-31 00:56:00,48.8,37.6,31.32,NNW,332,0.0,0.0,65,0.00,,---,0.00,VWS V14.01,2013-03-31 07:56:00,
2013-03-31 01:02:00,48.5,37.7,31.32,NNW,340,0.0,0.0,66,0.00,,---,0.00,VWS V14.01,2013-03-31 08:02:00,
2013-03-31 01:07:00,48.3,37.5,31.33,NNW,345,0.0,0.0,66,0.00,,---,0.00,VWS V14.01,2013-03-31 08:07:00,
2013-03-31 01:12:00,48.5,37.3,31.33,NNW,337,0.0,0.0,65,0.00,,---,0.00,VWS V14.01,2013-03-31 08:12:00,
2013-03-31 01:17:00,48.3,37.1,31.33,NNW,331,0.0,0.0,65,0.00,,---,0.00,VWS V14.01,2013-03-31 08:17:00,
2013-03-31 01:22:00,48.2,37.8,31.33,NNW,331,0.0,0.0,67,0.00,,---,0.00,VWS V14.01,2013-03-31 08:22:00,
2013-03-31 01:27:00,48.0,37.6,31.33,NNW,329,0.0,0.0,67,0.00,,---,0.00,VWS V14.01,2013-03-31 08:27:00,
2013-03-31 01:32:00,47.9,37.5,31.33,NNW,342,0.0,0.0,67,0.00,,---,0.00,VWS V14.01,2013-03-31 08:32:00,
2013-03-31 01:38:00,47.9,37.5,31.33,NNW,327,0.0,0.0,67,0.00,,---,0.00,VWS V14.01,2013-03-31 08:38:00,
2013-03-31 01:43:00,47.7,37.3,31.33,NNW,341,0.0,0.0,67,0.00,,---,0.00,VWS V14.01,2013-03-31 08:43:00,
2013-03-31 01:48:00,47.7,37.3,31.33,NNW,329,0.0,0.0,67,0.00,,---,0.00,VWS V14.01,2013-03-31 08:48:00,
2013-03-31 01:53:00,47.7,37.7,31.33,NNW,331,0.0,0.0,68,0.00,,---,0.00,VWS V14.01,2013-03-31 08:53:00,
2013-03-31 01:58:00,47.7,37.3,31.33,NNW,327,0.0,0.0,67,0.00,,---,0.00,VWS V14.01,2013-03-31 08:58:00,
2013-03-31 02:03:00,47.7,37.3,31.33,NNW,331,0.0,0.0,67,0.00,,---,0.00,VWS V14.01,2013-03-31 09:03:00,
2013-03-31 02:08:00,47.7,36.9,31.33,NNW,327,0.0,0.0,66,0.00,,---,0.00,VWS V14.01,2013-03-31 09:08:00,
2013-03-31 02:14:00,47.7,36.9,31.33,NNW,328,0.0,0.0,66,0.00,,---,0.00,VWS V14.01,2013-03-31 09:14:00,
2013-03-31 02:19:00,47.6,37.2,31.33,NNW,327,0.0,0.0,67,0.00,,---,0.00,VWS V14.01,2013-03-31 09:19:00,
2013-03-31 02:24:00,47.4,37.4,31.33,NNW,339,0.0,0.0,68,0.00,,---,0.00,VWS V14.01,2013-03-31 09:24:00,
2013-03-31 02:29:00,47.4,37.0,31.33,NW,325,0.0,0.0,67,0.00,,---,0.00,VWS V14.01,2013-03-31 09:29:00,
2013-03-31 02:34:00,47.4,37.0,31.33,NW,325,0.0,0.0,67,0.00,,---,0.00,VWS V14.01,2013-03-31 09:34:00,
2013-03-31 02:39:00,47.4,37.4,31.33,NNW,335,0.0,0.0,68,0.00,,---,0.00,VWS V14.01,2013-03-31 09:39:00,
2013-03-31 02:44:00,47.4,36.6,31.33,NNW,348,0.0,0.0,66,0.00,,---,0.00,VWS V14.01,2013-03-31 09:44:00,
2013-03-31 02:49:00,47.4,36.6,31.33,NNW,344,0.0,0.0,66,0.00,,---,0.00,VWS V14.01,2013-03-31 09:49:00,
2013-03-31 02:54:00,47.4,36.6,31.33,NNW,348,0.0,0.0,66,0.00,,---,0.00,VWS V14.01,2013-03-31 09:54:00,
2013-03-31 03:00:00,47.4,37.0,31.33,NNW,340,0.0,0.0,67,0.00,,---,0.00,VWS V14.01,2013-03-31 10:00:00,
2013-03-31 03:05:00,47.3,36.9,31.33,North,350,0.0,0.0,67,0.00,,---,0.00,VWS V14.01,2013-03-31 10:05:00,
2013-03-31 03:10:00,47.1,36.7,31.33,NNW,348,0.0,0.0,67,0.00,,---,0.00,VWS V14.01,2013-03-31 10:10:00,
2013-03-31 03:15:00,46.8,36.8,31.33,NNW,344,0.0,0.0,68,0.00,,---,0.00,VWS V14.01,2013-03-31 10:15:00,
2013-03-31 03:20:00,46.8,37.2,31.33,NNW,348,0.0,0.0,69,0.00,,---,0.00,VWS V14.01,2013-03-31 10:20:00,
2013-03-31 03:25:00,46.5,36.9,31.33,NNW,342,0.0,0.0,69,0.00,,---,0.00,VWS V14.01,2013-03-31 10:25:00,
2013-03-31 03:30:00,46.5,36.5,31.33,North,355,0.0,0.0,68,0.00,,---,0.00,VWS V14.01,2013-03-31 10:30:00,
2013-03-31 03:35:00,46.4,36.4,31.32,North,355,0.0,0.0,68,0.00,,---,0.00,VWS V14.01,2013-03-31 10:35:00,
2013-03-31 03:40:00,46.2,35.9,31.32,North,350,0.0,0.0,67,0.00,,---,0.00,VWS V14.01,2013-03-31 10:40:00,
2013-03-31 03:46:00,46.1,35.8,31.32,North,350,0.0,0.0,67,0.00,,---,0.00,VWS V14.01,2013-03-31 10:46:00,
2013-03-31 03:51:00,46.1,35.8,31.32,North,355,0.0,0.0,67,0.00,,---,0.00,VWS V14.01,2013-03-31 10:51:00,
2013-03-31 03:56:00,46.2,35.5,31.31,NNE,16,0.0,0.0,66,0.00,,---,0.00,VWS V14.01,2013-03-31 10:56:00,
2013-03-31 04:02:00,46.1,35.4,31.31,North,360,0.0,0.0,66,0.00,,---,0.00,VWS V14.01,2013-03-31 11:02:00,
2013-03-31 04:07:00,46.0,35.3,31.31,North,355,0.0,0.0,66,0.00,,---,0.00,VWS V14.01,2013-03-31 11:07:00,
2013-03-31 04:12:00,45.8,35.1,31.31,NNW,335,0.0,0.0,66,0.00,,---,0.00,VWS V14.01,2013-03-31 11:12:00,
2013-03-31 04:17:00,45.8,35.1,31.31,NNW,344,0.0,0.0,66,0.00,,---,0.00,VWS V14.01,2013-03-31 11:17:00,
2013-03-31 04:22:00,45.4,35.5,31.30,NNW,334,0.0,0.0,68,0.00,,---,0.00,VWS V14.01,2013-03-31 11:22:00,
2013-03-31 04:27:00,45.1,35.2,31.30,NNW,334,0.0,0.0,68,0.00,,---,0.00,VWS V14.01,2013-03-31 11:27:00,
2013-03-31 04:32:00,45.1,35.5,31.30,NNW,333,0.0,0.0,69,0.00,,---,0.00,VWS V14.01,2013-03-31 11:32:00,
2013-03-31 04:38:00,44.8,35.3,31.30,NNW,331,0.0,0.0,69,0.00,,---,0.00,VWS V14.01,2013-03-31 11:38:00,
2013-03-31 04:43:00,44.8,34.5,31.30,NNW,342,0.0,0.0,67,0.00,,---,0.00,VWS V14.01,2013-03-31 11:43:00,
2013-03-31 04:48:00,44.8,34.5,31.30,NNW,342,0.0,0.0,67,0.00,,---,0.00,VWS V14.01,2013-03-31 11:48:00,
2013-03-31 04:53:00,44.6,34.3,31.30,NNW,336,0.0,0.0,67,0.00,,---,0.00,VWS V14.01,2013-03-31 11:53:00,
2013-03-31 04:58:00,44.5,34.6,31.30,NNW,329,0.0,0.0,68,0.00,,---,0.00,VWS V14.01,2013-03-31 11:58:00,
2013-03-31 05:03:00,44.3,34.4,31.30,NNW,328,0.0,0.0,68,0.00,,---,0.00,VWS V14.01,2013-03-31 12:03:00,
2013-03-31 05:08:00,44.3,34.8,31.29,NW,319,0.0,0.0,69,0.00,,---,0.00,VWS V14.01,2013-03-31 12:08:00,
2013-03-31 05:13:00,44.2,34.7,31.29,NW,321,0.0,0.0,69,0.00,,---,0.00,VWS V14.01,2013-03-31 12:13:00,
2013-03-31 05:19:00,44.1,34.2,31.29,NW,321,0.0,0.0,68,0.00,,---,0.00,VWS V14.01,2013-03-31 12:19:00,
2013-03-31 05:24:00,44.1,34.2,31.29,NW,323,0.0,0.0,68,0.00,,---,0.00,VWS V14.01,2013-03-31 12:24:00,
2013-03-31 05:29:00,43.9,34.4,31.29,NW,323,0.0,0.0,69,0.00,,---,0.00,VWS V14.01,2013-03-31 12:29:00,
2013-03-31 05:34:00,43.8,33.9,31.29,NW,325,0.0,0.0,68,0.00,,---,0.00,VWS V14.01,2013-03-31 12:34:00,
2013-03-31 05:39:00,43.8,33.9,31.29,NW,322,0.0,0.0,68,0.00,,---,0.00,VWS V14.01,2013-03-31 12:39:00,
2013-03-31 05:44:00,43.8,33.9,31.29,NNW,327,0.0,0.0,68,0.00,,---,0.00,VWS V14.01,2013-03-31 12:44:00,
2013-03-31 05:49:00,43.6,33.8,31.29,NW,318,0.0,0.0,68,0.00,,---,0.00,VWS V14.01,2013-03-31 12:49:00,
2013-03-31 05:54:00,43.6,34.1,31.29,NNW,330,0.0,0.0,69,0.00,,---,0.00,VWS V14.01,2013-03-31 12:54:00,
2013-03-31 05:59:00,43.5,33.7,31.29,NW,319,0.0,0.0,68,0.00,,---,0.00,VWS V14.01,2013-03-31 12:59:00,
2013-03-31 06:04:00,43.3,33.5,31.28,NW,326,0.0,0.0,68,0.00,,---,0.00,VWS V14.01,2013-03-31 13:04:00,
2013-03-31 06:09:00,43.3,33.5,31.27,NW,323,0.0,0.0,68,0.00,,---,0.00,VWS V14.01,2013-03-31 13:09:00,
2013-03-31 06:14:00,43.1,33.3,31.27,NW,323,0.0,0.0,68,0.00,,---,0.00,VWS V14.01,2013-03-31 13:14:00,
2013-03-31 06:19:00,43.1,33.3,31.27,NW,321,0.0,0.0,68,0.00,,---,0.00,VWS V14.01,2013-03-31 13:19:00,
2013-03-31 06:24:00,42.9,33.1,31.27,NW,323,0.0,0.0,68,0.00,,---,0.00,VWS V14.01,2013-03-31 13:24:00,
2013-03-31 06:29:00,42.8,33.0,31.27,NW,322,0.0,0.0,68,0.00,,---,0.00,VWS V14.01,2013-03-31 13:29:00,
2013-03-31 06:34:00,42.8,33.0,31.27,NW,319,0.0,0.0,68,0.00,,---,0.00,VWS V14.01,2013-03-31 13:34:00,
2013-03-31 06:39:00,42.6,32.8,31.27,NW,325,0.0,0.0,68,0.00,,---,0.00,VWS V14.01,2013-03-31 13:39:00,
2013-03-31 06:44:00,42.8,33.0,31.27,NW,315,0.0,0.0,68,0.00,,---,0.00,VWS V14.01,2013-03-31 13:44:00,
2013-03-31 06:49:00,42.6,32.8,31.27,NW,313,0.0,0.0,68,0.00,,---,0.00,VWS V14.01,2013-03-31 13:49:00,
2013-03-31 06:55:00,42.6,32.4,31.27,NW,325,0.0,0.0,67,0.00,,---,0.00,VWS V14.01,2013-03-31 13:55:00,
2013-03-31 07:00:00,42.6,32.8,31.27,NW,325,0.0,0.0,68,0.00,,---,0.00,VWS V14.01,2013-03-31 14:00:00,
2013-03-31 07:05:00,42.8,32.6,31.26,NW,319,0.0,0.0,67,0.00,,---,0.00,VWS V14.01,2013-03-31 14:05:00,
2013-03-31 07:10:00,42.8,32.6,31.26,NW,315,0.0,0.0,67,0.00,,---,0.00,VWS V14.01,2013-03-31 14:10:00,
2013-03-31 07:15:00,42.8,33.0,31.26,NW,311,0.0,0.0,68,0.00,,---,0.00,VWS V14.01,2013-03-31 14:15:00,
2013-03-31 07:20:00,42.8,32.6,31.26,NW,310,0.0,0.0,67,0.00,,---,0.00,VWS V14.01,2013-03-31 14:20:00,
2013-03-31 07:25:00,42.9,32.3,31.26,NW,311,0.0,0.0,66,0.00,,---,0.00,VWS V14.01,2013-03-31 14:25:00,
2013-03-31 07:30:00,43.1,32.5,31.26,NW,313,0.0,0.0,66,0.00,,---,0.00,VWS V14.01,2013-03-31 14:30:00,
2013-03-31 07:36:00,43.1,32.5,31.26,NW,319,0.0,0.0,66,0.00,,---,0.00,VWS V14.01,2013-03-31 14:36:00,
2013-03-31 07:41:00,43.3,32.7,31.26,NNW,329,0.0,0.0,66,0.00,,---,0.00,VWS V14.01,2013-03-31 14:41:00,
2013-03-31 07:47:00,43.5,32.5,31.27,NNW,331,0.0,0.0,65,0.00,,---,0.00,VWS V14.01,2013-03-31 14:47:00,
2013-03-31 07:52:00,43.8,32.8,31.27,NW,323,0.0,0.0,65,0.00,,---,0.00,VWS V14.01,2013-03-31 14:52:00,
2013-03-31 07:57:00,43.9,32.1,31.27,NNW,331,0.0,0.0,63,0.00,,---,0.00,VWS V14.01,2013-03-31 14:57:00,
2013-03-31 08:02:00,44.1,32.7,31.27,NNW,331,0.0,0.0,64,0.00,,---,0.00,VWS V14.01,2013-03-31 15:02:00,
2013-03-31 08:07:00,44.2,32.4,31.26,NW,321,0.0,0.0,63,0.00,,---,0.00,VWS V14.01,2013-03-31 15:07:00,
2013-03-31 08:12:00,44.3,32.5,31.26,NNW,330,0.0,0.0,63,0.00,,---,0.00,VWS V14.01,2013-03-31 15:12:00,
2013-03-31 08:17:00,44.3,32.5,31.26,NW,326,0.0,0.0,63,0.00,,---,0.00,VWS V14.01,2013-03-31 15:17:00,
2013-03-31 08:22:00,44.8,33.0,31.26,NW,325,0.0,0.0,63,0.00,,---,0.00,VWS V14.01,2013-03-31 15:22:00,
2013-03-31 08:28:00,44.8,32.6,31.26,NNW,334,0.0,0.0,62,0.00,,---,0.00,VWS V14.01,2013-03-31 15:28:00,
2013-03-31 08:33:00,45.1,32.5,31.26,NNW,327,0.0,0.0,61,0.00,,---,0.00,VWS V14.01,2013-03-31 15:33:00,
2013-03-31 08:38:00,45.1,32.9,31.26,NNW,344,0.0,0.0,62,0.00,,---,0.00,VWS V14.01,2013-03-31 15:38:00,
2013-03-31 08:43:00,45.2,32.2,31.26,NNW,340,0.0,0.0,60,0.00,,---,0.00,VWS V14.01,2013-03-31 15:43:00,
2013-03-31 08:48:00,45.1,31.6,31.26,NNW,344,0.0,0.0,59,0.00,,---,0.00,VWS V14.01,2013-03-31 15:48:00,
2013-03-31 08:53:00,45.4,32.3,31.26,NNW,348,0.0,0.0,60,0.00,,---,0.00,VWS V14.01,2013-03-31 15:53:00,
2013-03-31 08:58:00,45.5,32.0,31.27,North,360,0.0,0.0,59,0.00,,---,0.00,VWS V14.01,2013-03-31 15:58:00,
2013-03-31 09:03:00,45.7,32.6,31.27,North,355,0.0,0.0,60,0.00,,---,0.00,VWS V14.01,2013-03-31 16:03:00,
2013-03-31 09:08:00,45.7,33.0,31.26,NNW,327,0.0,0.0,61,0.00,,---,0.00,VWS V14.01,2013-03-31 16:08:00,
2013-03-31 09:13:00,46.0,32.9,31.26,NW,319,0.0,0.0,60,0.00,,---,0.00,VWS V14.01,2013-03-31 16:13:00,
2013-03-31 09:19:00,46.4,33.3,31.26,North,5,0.0,0.0,60,0.00,,---,0.00,VWS V14.01,2013-03-31 16:19:00,
2013-03-31 09:24:00,46.2,33.5,31.26,NNW,346,0.0,0.0,61,0.00,,---,0.00,VWS V14.01,2013-03-31 16:24:00,
2013-03-31 09:29:00,46.7,33.2,31.27,North,355,0.0,0.0,59,0.00,,---,0.00,VWS V14.01,2013-03-31 16:29:00,
2013-03-31 09:34:00,47.3,34.1,31.27,NNW,344,0.0,0.0,60,0.00,,---,0.00,VWS V14.01,2013-03-31 16:34:00,
2013-03-31 09:39:00,47.4,33.8,31.27,North,360,0.0,0.0,59,0.00,,---,0.00,VWS V14.01,2013-03-31 16:39:00,
2013-03-31 09:44:00,47.6,34.0,31.27,North,351,0.0,0.0,59,0.00,,---,0.00,VWS V14.01,2013-03-31 16:44:00,
2013-03-31 09:49:00,48.3,35.1,31.27,NW,311,0.0,0.0,60,0.00,,---,0.00,VWS V14.01,2013-03-31 16:49:00,
2013-03-31 09:55:00,48.8,34.3,31.28,North,355,0.0,0.0,57,0.00,,---,0.00,VWS V14.01,2013-03-31 16:55:00,
2013-03-31 10:00:00,49.1,33.7,31.28,NNW,342,0.0,0.0,55,0.00,,---,0.00,VWS V14.01,2013-03-31 17:00:00,
2013-03-31 10:05:00,49.1,33.7,31.27,North,355,0.0,0.0,55,0.00,,---,0.00,VWS V14.01,2013-03-31 17:05:00,
2013-03-31 10:10:00,49.2,34.2,31.27,NNW,347,0.0,0.0,56,0.00,,---,0.00,VWS V14.01,2013-03-31 17:10:00,
2013-03-31 10:15:00,49.2,34.2,31.27,North,360,0.0,0.0,56,0.00,,---,0.00,VWS V14.01,2013-03-31 17:15:00,
2013-03-31 10:20:00,49.8,33.8,31.27,North,355,0.0,0.0,54,0.00,,---,0.00,VWS V14.01,2013-03-31 17:20:00,
2013-03-31 10:25:00,49.9,33.9,31.27,NNW,347,0.0,0.0,54,0.00,,---,0.00,VWS V14.01,2013-03-31 17:25:00,
2013-03-31 10:30:00,50.2,33.7,31.27,NNW,336,0.0,0.0,53,0.00,,---,0.00,VWS V14.01,2013-03-31 17:30:00,
2013-03-31 10:35:00,50.2,34.2,31.27,NNE,19,0.0,0.0,54,0.00,,---,0.00,VWS V14.01,2013-03-31 17:35:00,
2013-03-31 10:40:00,50.4,33.9,31.27,NNW,342,0.0,0.0,53,0.00,,---,0.00,VWS V14.01,2013-03-31 17:40:00,
2013-03-31 10:45:00,51.0,34.5,31.28,NW,324,0.0,0.0,53,0.00,,---,0.00,VWS V14.01,2013-03-31 17:45:00,
2013-03-31 10:50:00,51.1,34.6,31.28,North,360,0.0,0.0,53,0.00,,---,0.00,VWS V14.01,2013-03-31 17:50:00,
2013-03-31 10:55:00,51.4,34.9,31.28,NW,323,0.0,0.0,53,0.00,,---,0.00,VWS V14.01,2013-03-31 17:55:00,
2013-03-31 11:01:00,52.2,34.6,31.28,NNW,332,0.0,0.0,51,0.00,,---,0.00,VWS V14.01,2013-03-31 18:01:00,
2013-03-31 11:06:00,52.2,35.6,31.27,North,350,0.0,0.0,53,0.00,,---,0.00,VWS V14.01,2013-03-31 18:06:00,
2013-03-31 11:11:00,52.8,34.7,31.28,North,350,0.0,0.0,50,0.00,,---,0.00,VWS V14.01,2013-03-31 18:11:00,
2013-03-31 11:17:00,52.5,34.4,31.28,NNE,16,0.0,0.0,50,0.00,,---,0.00,VWS V14.01,2013-03-31 18:17:00,
2013-03-31 11:22:00,52.8,34.7,31.28,NNW,330,0.0,0.0,50,0.00,,---,0.00,VWS V14.01,2013-03-31 18:22:00,
2013-03-31 11:27:00,53.5,34.8,31.28,North,5,0.0,0.0,49,0.00,,---,0.00,VWS V14.01,2013-03-31 18:27:00,
2013-03-31 11:32:00,53.1,35.0,31.28,NNE,15,0.0,0.0,50,0.00,,---,0.00,VWS V14.01,2013-03-31 18:32:00,
2013-03-31 11:37:00,53.3,34.7,31.28,NNE,13,0.0,0.0,49,0.00,,---,0.00,VWS V14.01,2013-03-31 18:37:00,
2013-03-31 11:42:00,53.3,34.7,31.28,North,355,0.0,0.0,49,0.00,,---,0.00,VWS V14.01,2013-03-31 18:42:00,
2013-03-31 11:47:00,53.5,35.8,31.28,NNE,19,0.0,0.0,51,0.00,,---,0.00,VWS V14.01,2013-03-31 18:47:00,
2013-03-31 11:53:00,54.4,35.7,31.29,NNE,20,0.0,0.0,49,0.00,,---,0.00,VWS V14.01,2013-03-31 18:53:00,
2013-03-31 11:58:00,54.2,35.5,31.28,NNE,29,0.0,0.0,49,0.00,,---,0.00,VWS V14.01,2013-03-31 18:58:00,
2013-03-31 12:03:00,54.1,34.9,31.29,NNW,331,0.0,0.0,48,0.00,,---,0.00,VWS V14.01,2013-03-31 19:03:00,
2013-03-31 12:08:00,54.4,35.1,31.29,North,355,0.0,0.0,48,0.00,,---,0.00,VWS V14.01,2013-03-31 19:08:00,
2013-03-31 12:13:00,54.8,35.5,31.30,North,5,0.0,0.0,48,0.00,,---,0.00,VWS V14.01,2013-03-31 19:13:00,
2013-03-31 12:18:00,54.1,35.4,31.28,North,355,0.0,0.0,49,0.00,,---,0.00,VWS V14.01,2013-03-31 19:18:00,
2013-03-31 12:23:00,54.7,35.9,31.30,NNE,13,0.0,0.0,49,0.00,,---,0.00,VWS V14.01,2013-03-31 19:23:00,
2013-03-31 12:28:00,54.8,36.0,31.30,NE,38,0.0,0.0,49,0.00,,---,0.00,VWS V14.01,2013-03-31 19:28:00,
2013-03-31 12:34:00,55.4,36.1,31.29,NNW,338,0.0,0.0,48,0.00,,---,0.00,VWS V14.01,2013-03-31 19:34:00,
2013-03-31 12:39:00,55.7,36.3,31.30,North,355,0.0,0.0,48,0.00,,---,0.00,VWS V14.01,2013-03-31 19:39:00,
2013-03-31 12:44:00,55.9,35.4,31.29,North,350,0.0,0.0,46,0.00,,---,0.00,VWS V14.01,2013-03-31 19:44:00,
2013-03-31 12:49:00,56.5,35.4,31.30,NNE,28,0.0,0.0,45,0.00,,---,0.00,VWS V14.01,2013-03-31 19:49:00,
2013-03-31 12:54:00,56.6,36.1,31.31,NE,44,0.0,0.0,46,0.00,,---,0.00,VWS V14.01,2013-03-31 19:54:00,
2013-03-31 12:59:00,56.3,35.2,31.30,NNE,12,0.0,0.0,45,0.00,,---,0.00,VWS V14.01,2013-03-31 19:59:00,
2013-03-31 13:04:00,56.5,36.0,31.30,North,349,0.0,0.0,46,0.00,,---,0.00,VWS V14.01,2013-03-31 20:04:00,
2013-03-31 13:09:00,56.7,34.5,31.29,NNE,28,0.0,0.0,43,0.00,,---,0.00,VWS V14.01,2013-03-31 20:09:00,
2013-03-31 13:14:00,57.0,35.3,31.29,NW,325,0.0,0.0,44,0.00,,---,0.00,VWS V14.01,2013-03-31 20:14:00,
2013-03-31 13:19:00,57.0,34.8,31.29,NNE,32,0.0,0.0,43,0.00,,---,0.00,VWS V14.01,2013-03-31 20:19:00,
2013-03-31 13:25:00,57.0,34.8,29.95,NNE,16,0.0,0.0,43,0.00,,---,0.00,VWS V14.01,2013-03-31 20:25:00,
2013-03-31 13:30:00,57.0,34.2,31.29,NE,34,0.0,0.0,42,0.00,,---,0.00,VWS V14.01,2013-03-31 20:30:00,
2013-03-31 13:35:00,57.8,35.5,31.30,North,355,0.0,0.0,43,0.00,,---,0.00,VWS V14.01,2013-03-31 20:35:00,
2013-03-31 13:40:00,57.8,35.5,31.30,NE,37,0.0,0.0,43,0.00,,---,0.00,VWS V14.01,2013-03-31 20:40:00,
2013-03-31 13:45:00,57.8,34.3,31.30,North,5,0.0,0.0,41,0.00,,---,0.00,VWS V14.01,2013-03-31 20:45:00,
2013-03-31 13:50:00,58.4,36.6,31.30,North,360,0.0,0.0,44,0.00,,---,0.00,VWS V14.01,2013-03-31 20:50:00,
2013-03-31 13:55:00,57.8,34.9,31.30,NNW,346,0.0,0.0,42,0.00,,---,0.00,VWS V14.01,2013-03-31 20:55:00,
2013-03-31 14:00:00,58.0,34.5,31.30,NNE,17,0.0,0.0,41,0.00,,---,0.00,VWS V14.01,2013-03-31 21:00:00,
2013-03-31 14:05:00,58.1,35.2,31.29,NNW,338,0.0,0.0,42,0.00,,---,0.00,VWS V14.01,2013-03-31 21:05:00,
2013-03-31 14:10:00,58.6,35.0,31.30,North,5,0.0,0.0,41,0.00,,---,0.00,VWS V14.01,2013-03-31 21:10:00,
2013-03-31 14:15:00,59.0,36.0,31.31,NNE,18,0.0,0.0,42,0.00,,---,0.00,VWS V14.01,2013-03-31 21:15:00,
2013-03-31 14:21:00,58.9,34.0,31.30,North,351,0.0,0.0,39,0.00,,---,0.00,VWS V14.01,2013-03-31 21:21:00,
2013-03-31 14:26:00,58.1,33.9,31.29,North,351,0.0,0.0,40,0.00,,---,0.00,VWS V14.01,2013-03-31 21:26:00,
2013-03-31 14:32:00,58.7,35.1,31.30,North,355,0.0,0.0,41,0.00,,---,0.00,VWS V14.01,2013-03-31 21:32:00,
2013-03-31 14:37:00,58.7,35.1,29.96,NE,38,0.0,0.0,41,0.00,,---,0.00,VWS V14.01,2013-03-31 21:37:00,
2013-03-31 14:42:00,58.6,35.0,29.96,North,5,0.0,0.0,41,0.00,,---,0.00,VWS V14.01,2013-03-31 21:42:00,
2013-03-31 14:47:00,59.0,34.7,29.96,NNE,19,0.0,0.0,40,0.00,,---,0.00,VWS V14.01,2013-03-31 21:47:00,
2013-03-31 14:52:00,58.9,35.3,29.96,NNE,26,0.0,0.0,41,0.00,,---,0.00,VWS V14.01,2013-03-31 21:52:00,
2013-03-31 14:57:00,59.3,35.0,29.96,NNE,17,0.0,0.0,40,0.00,,---,0.00,VWS V14.01,2013-03-31 21:57:00,
2013-03-31 15:02:00,59.3,33.7,29.96,NNE,32,0.0,0.0,38,0.00,,---,0.00,VWS V14.01,2013-03-31 22:02:00,
2013-03-31 15:07:00,59.2,34.3,28.47,NNW,341,0.0,0.0,39,0.00,,---,0.00,VWS V14.01,2013-03-31 22:07:00,
2013-03-31 15:12:00,59.2,34.3,28.47,NNW,346,0.0,0.0,39,0.00,,---,0.00,VWS V14.01,2013-03-31 22:12:00,
2013-03-31 15:17:00,59.5,33.9,28.47,NNW,329,0.0,0.0,38,0.00,,---,0.00,VWS V14.01,2013-03-31 22:17:00,
2013-03-31 15:22:00,59.6,34.0,28.47,North,5,0.0,0.0,38,0.00,,---,0.00,VWS V14.01,2013-03-31 22:22:00,
2013-03-31 15:27:00,59.5,33.9,28.47,North,355,0.0,0.0,38,0.00,,---,0.00,VWS V14.01,2013-03-31 22:27:00,
2013-03-31 15:32:00,59.5,34.5,28.47,North,350,0.0,0.0,39,0.00,,---,0.00,VWS V14.01,2013-03-31 22:32:00,
2013-03-31 15:37:00,59.2,34.3,28.47,NNE,19,0.0,0.0,39,0.00,,---,0.00,VWS V14.01,2013-03-31 22:37:00,
2013-03-31 15:43:00,59.5,35.8,28.47,North,11,0.0,0.0,41,0.00,,---,0.00,VWS V14.01,2013-03-31 22:43:00,
2013-03-31 15:48:00,59.6,34.6,28.47,North,11,0.0,0.0,39,0.00,,---,0.00,VWS V14.01,2013-03-31 22:48:00,
2013-03-31 15:53:00,60.1,34.4,28.47,NNW,342,0.0,0.0,38,0.00,,---,0.00,VWS V14.01,2013-03-31 22:53:00,
2013-03-31 15:58:00,59.5,33.9,28.47,NNE,23,0.0,0.0,38,0.00,,---,0.00,VWS V14.01,2013-03-31 22:58:00,
2013-03-31 16:03:00,59.5,33.9,28.47,NW,304,0.0,0.0,38,0.00,,---,0.00,VWS V14.01,2013-03-31 23:03:00,
2013-03-31 16:08:00,59.0,34.1,28.47,NW,325,0.0,0.0,39,0.00,,---,0.00,VWS V14.01,2013-03-31 23:08:00,
2013-03-31 16:13:00,59.2,34.3,28.47,North,360,0.0,0.0,39,0.00,,---,0.00,VWS V14.01,2013-03-31 23:13:00,
2013-03-31 16:18:00,59.0,34.1,28.47,NE,42,0.0,0.0,39,0.00,,---,0.00,VWS V14.01,2013-03-31 23:18:00,
2013-03-31 16:24:00,59.5,35.8,28.47,NNW,336,0.0,0.0,41,0.00,,---,0.00,VWS V14.01,2013-03-31 23:24:00,
2013-03-31 16:29:00,59.8,34.2,28.47,NE,42,0.0,0.0,38,0.00,,---,0.00,VWS V14.01,2013-03-31 23:29:00,
2013-03-31 16:34:00,59.6,34.6,28.47,North,9,0.0,0.0,39,0.00,,---,0.00,VWS V14.01,2013-03-31 23:34:00,
2013-03-31 16:39:00,59.5,34.5,28.47,North,355,0.0,0.0,39,0.00,,---,0.00,VWS V14.01,2013-03-31 23:39:00,
2013-03-31 16:44:00,59.5,34.5,25.73,NNE,29,0.0,0.0,39,0.00,,---,0.00,VWS V14.01,2013-03-31 23:44:00,
2013-03-31 16:49:00,59.3,35.6,25.73,NNW,347,0.0,0.0,41,0.00,,---,0.00,VWS V14.01,2013-03-31 23:49:00,
2013-03-31 16:54:00,58.7,35.1,25.73,NNE,13,0.0,0.0,41,0.00,,---,0.00,VWS V14.01,2013-03-31 23:54:00,
2013-03-31 16:59:00,58.6,34.4,25.73,North,5,0.0,0.0,40,0.00,,---,0.00,VWS V14.01,2013-03-31 23:59:00,
2013-03-31 17:04:00,58.6,35.0,25.73,North,355,0.0,0.0,41,0.00,,---,0.00,VWS V14.01,2013-04-01 00:04:00,
2013-03-31 17:09:00,58.6,35.0,25.73,NNW,348,0.0,0.0,41,0.00,,---,0.00,VWS V14.01,2013-04-01 00:09:00,
2013-03-31 17:14:00,58.6,35.0,25.73,NNW,331,0.0,0.0,41,0.00,,---,0.00,VWS V14.01,2013-04-01 00:14:00,
2013-03-31 17:19:00,58.4,34.8,25.73,NNW,347,0.0,0.0,41,0.00,,---,0.00,VWS V14.01,2013-04-01 00:19:00,
2013-03-31 17:25:00,58.4,34.8,25.73,North,355,0.0,0.0,41,0.00,,---,0.00,VWS V14.01,2013-04-01 00:25:00,
2013-03-31 17:30:00,58.4,35.4,25.73,NNE,15,0.0,0.0,42,0.00,,---,0.00,VWS V14.01,2013-04-01 00:30:00,
2013-03-31 17:35:00,58.6,35.6,25.73,NNW,338,0.0,0.0,42,0.00,,---,0.00,VWS V14.01,2013-04-01 00:35:00,
2013-03-31 17:40:00,58.7,35.1,30.92,North,355,0.0,0.0,41,0.00,,---,0.00,VWS V14.01,2013-04-01 00:40:00,
2013-03-31 17:45:00,58.6,35.0,30.92,North,355,0.0,0.0,41,0.00,,---,0.00,VWS V14.01,2013-04-01 00:45:00,
2013-03-31 17:50:00,58.3,35.3,30.92,North,351,0.0,0.0,42,0.00,,---,0.00,VWS V14.01,2013-04-01 00:50:00,
2013-03-31 17:55:00,58.1,35.2,30.92,NNE,12,0.0,0.0,42,0.00,,---,0.00,VWS V14.01,2013-04-01 00:55:00,
2013-03-31 18:00:00,58.1,35.2,30.92,North,355,0.0,0.0,42,0.00,,---,0.00,VWS V14.01,2013-04-01 01:00:00,
2013-03-31 18:05:00,57.8,35.5,30.92,NNW,347,0.0,0.0,43,0.00,,---,0.00,VWS V14.01,2013-04-01 01:05:00,
2013-03-31 18:10:00,57.8,35.5,30.92,North,360,0.0,0.0,43,0.00,,---,0.00,VWS V14.01,2013-04-01 01:10:00,
2013-03-31 18:15:00,57.6,35.3,30.92,North,360,0.0,0.0,43,0.00,,---,0.00,VWS V14.01,2013-04-01 01:15:00,
2013-03-31 18:21:00,57.6,35.3,25.75,North,11,0.0,0.0,43,0.00,,---,0.00,VWS V14.01,2013-04-01 01:21:00,
2013-03-31 18:26:00,57.5,35.2,25.75,NNE,15,0.0,0.0,43,0.00,,---,0.00,VWS V14.01,2013-04-01 01:26:00,
2013-03-31 18:31:00,57.2,34.9,25.75,North,5,0.0,0.0,43,0.00,,---,0.00,VWS V14.01,2013-04-01 01:31:00,
2013-03-31 18:36:00,57.0,34.8,25.75,North,355,0.0,0.0,43,0.00,,---,0.00,VWS V14.01,2013-04-01 01:36:00,
2013-03-31 18:41:00,56.9,35.2,25.75,North,355,0.0,0.0,44,0.00,,---,0.00,VWS V14.01,2013-04-01 01:41:00,
2013-03-31 18:47:00,56.7,35.0,25.75,NNE,15,0.0,0.0,44,0.00,,---,0.00,VWS V14.01,2013-04-01 01:47:00,
2013-03-31 18:52:00,56.6,35.0,25.75,North,360,0.0,0.0,44,0.00,,---,0.00,VWS V14.01,2013-04-01 01:52:00,
2013-03-31 18:57:00,56.5,34.9,25.75,North,5,0.0,0.0,44,0.00,,---,0.00,VWS V14.01,2013-04-01 01:57:00,
2013-03-31 19:02:00,56.2,35.2,25.75,North,5,0.0,0.0,45,0.00,,---,0.00,VWS V14.01,2013-04-01 02:02:00,
2013-03-31 19:07:00,56.0,35.0,28.49,North,355,0.0,0.0,45,0.00,,---,0.00,VWS V14.01,2013-04-01 02:07:00,
2013-03-31 19:12:00,55.9,35.4,28.49,North,355,0.0,0.0,46,0.00,,---,0.00,VWS V14.01,2013-04-01 02:12:00,
2013-03-31 19:17:00,55.4,35.5,28.49,North,11,0.0,0.0,47,0.00,,---,0.00,VWS V14.01,2013-04-01 02:17:00,
2013-03-31 19:22:00,55.3,34.9,28.49,North,349,0.0,0.0,46,0.00,,---,0.00,VWS V14.01,2013-04-01 02:22:00,
2013-03-31 19:28:00,55.3,35.4,28.49,NNW,332,0.0,0.0,47,0.00,,---,0.00,VWS V14.01,2013-04-01 02:28:00,
2013-03-31 19:33:00,55.1,34.7,28.49,North,350,0.0,0.0,46,0.00,,---,0.00,VWS V14.01,2013-04-01 02:33:00,
2013-03-31 19:38:00,54.8,35.0,28.49,North,350,0.0,0.0,47,0.00,,---,0.00,VWS V14.01,2013-04-01 02:38:00,
2013-03-31 19:43:00,54.7,34.3,28.49,NNW,342,0.0,0.0,46,0.00,,---,0.00,VWS V14.01,2013-04-01 02:43:00,
2013-03-31 19:48:00,54.4,34.6,28.49,North,355,0.0,0.0,47,0.00,,---,0.00,VWS V14.01,2013-04-01 02:48:00,
2013-03-31 19:53:00,54.1,34.3,28.49,North,5,0.0,0.0,47,0.00,,---,0.00,VWS V14.01,2013-04-01 02:53:00,
2013-03-31 19:58:00,53.9,36.2,28.49,NNW,348,0.0,0.0,51,0.00,,---,0.00,VWS V14.01,2013-04-01 02:58:00,
2013-03-31 20:03:00,53.5,37.8,20.75,NNW,329,0.0,0.0,55,0.00,,---,0.00,VWS V14.01,2013-04-01 03:03:00,
2013-03-31 20:09:00,53.3,38.9,20.75,NNW,344,0.0,0.0,58,0.00,,---,0.00,VWS V14.01,2013-04-01 03:09:00,
2013-03-31 20:14:00,52.9,39.4,31.27,NNW,348,0.0,0.0,60,0.00,,---,0.00,VWS V14.01,2013-04-01 03:14:00,
2013-03-31 20:19:00,52.6,40.0,29.59,NNW,344,0.0,0.0,62,0.00,,---,0.00,VWS V14.01,2013-04-01 03:19:00,
2013-03-31 20:24:00,52.5,40.3,31.27,NNW,336,0.0,0.0,63,0.00,,---,0.00,VWS V14.01,2013-04-01 03:24:00,
2013-03-31 20:29:00,52.3,40.5,29.59,North,360,0.0,0.0,64,0.00,,---,0.00,VWS V14.01,2013-04-01 03:29:00,
2013-03-31 20:34:00,52.0,40.6,31.27,NNW,340,0.0,0.0,65,0.00,,---,0.00,VWS V14.01,2013-04-01 03:34:00,
2013-03-31 20:39:00,51.9,40.9,31.27,North,351,0.0,0.0,66,0.00,,---,0.00,VWS V14.01,2013-04-01 03:39:00,
2013-03-31 20:44:00,51.7,41.1,31.27,NNW,344,0.0,0.0,67,0.00,,---,0.00,VWS V14.01,2013-04-01 03:44:00,
2013-03-31 20:49:00,51.6,41.4,31.27,NW,321,0.0,0.0,68,0.00,,---,0.00,VWS V14.01,2013-04-01 03:49:00,
2013-03-31 20:54:00,51.4,41.2,31.26,NNW,342,0.0,0.0,68,0.00,,---,0.00,VWS V14.01,2013-04-01 03:54:00,
2013-03-31 21:00:00,51.3,41.5,31.26,NW,325,0.0,0.0,69,0.00,,---,0.00,VWS V14.01,2013-04-01 04:00:00,
2013-03-31 21:02:00,51.1,41.3,29.92,North,355,0.0,0.0,69,0.00,,---,0.00,VWS V14.01,2013-04-01 04:02:00,
2013-03-31 21:07:00,51.1,41.3,31.28,NNW,329,0.0,0.0,69,0.00,,---,0.00,VWS V14.01,2013-04-01 04:07:00,
2013-03-31 21:12:00,51.0,41.6,28.60,NNW,339,0.0,0.0,70,0.00,,---,0.00,VWS V14.01,2013-04-01 04:12:00,
2013-03-31 21:14:00,50.8,41.4,28.60,North,5,0.0,0.0,70,0.00,,---,0.00,VWS V14.01,2013-04-01 04:14:00,
2013-03-31 21:19:00,50.5,41.5,29.94,NNW,348,0.0,0.0,71,0.00,,---,0.00,VWS V14.01,2013-04-01 04:19:00,
2013-03-31 21:24:00,50.4,41.4,31.28,NNW,327,0.0,0.0,71,0.00,,---,0.00,VWS V14.01,2013-04-01 04:24:00,
2013-03-31 21:29:00,50.1,41.4,31.27,NW,321,0.0,0.0,72,0.00,,---,0.00,VWS V14.01,2013-04-01 04:29:00,
2013-03-31 21:34:00,50.1,41.4,31.27,NW,325,0.0,0.0,72,0.00,,---,0.00,VWS V14.01,2013-04-01 04:34:00,
2013-03-31 21:39:00,49.9,41.2,31.27,NNW,340,0.0,0.0,72,0.00,,---,0.00,VWS V14.01,2013-04-01 04:39:00,
2013-03-31 21:44:00,49.8,41.2,31.27,NW,318,0.0,0.0,72,0.00,,---,0.00,VWS V14.01,2013-04-01 04:44:00,
2013-03-31 21:49:00,49.8,41.2,31.27,NNW,329,0.0,0.0,72,0.00,,---,0.00,VWS V14.01,2013-04-01 04:49:00,
2013-03-31 21:54:00,49.6,41.0,31.27,NNW,346,0.0,0.0,72,0.00,,---,0.00,VWS V14.01,2013-04-01 04:54:00,
2013-03-31 21:59:00,49.5,40.9,31.27,NW,323,0.0,0.0,72,0.00,,---,0.00,VWS V14.01,2013-04-01 04:59:00,
2013-03-31 22:05:00,49.4,41.1,31.28,NW,314,0.0,0.0,73,0.00,,---,0.00,VWS V14.01,2013-04-01 05:05:00,
2013-03-31 22:10:00,49.2,40.9,31.28,NNW,340,0.0,0.0,73,0.00,,---,0.00,VWS V14.01,2013-04-01 05:10:00,
2013-03-31 22:15:00,49.1,40.5,31.28,NNW,334,0.0,0.0,72,0.00,,---,0.00,VWS V14.01,2013-04-01 05:15:00,
2013-03-31 22:20:00,49.2,40.2,31.28,NNW,330,0.0,0.0,71,0.00,,---,0.00,VWS V14.01,2013-04-01 05:20:00,
2013-03-31 22:25:00,49.1,40.5,31.28,NNW,327,0.0,0.0,72,0.00,,---,0.00,VWS V14.01,2013-04-01 05:25:00,
2013-03-31 22:30:00,49.1,40.8,31.28,NW,323,0.0,0.0,73,0.00,,---,0.00,VWS V14.01,2013-04-01 05:30:00,
2013-03-31 22:36:00,48.9,41.0,31.28,NNW,332,0.0,0.0,74,0.00,,---,0.00,VWS V14.01,2013-04-01 05:36:00,
2013-03-31 22:41:00,48.9,40.6,31.28,NW,323,0.0,0.0,73,0.00,,---,0.00,VWS V14.01,2013-04-01 05:41:00,
2013-03-31 22:46:00,48.8,40.5,31.28,NW,325,0.0,0.0,73,0.00,,---,0.00,VWS V14.01,2013-04-01 05:46:00,
2013-03-31 22:51:00,48.6,40.3,31.28,NNW,333,0.0,0.0,73,0.00,,---,0.00,VWS V14.01,2013-04-01 05:51:00,
2013-03-31 22:56:00,48.6,40.0,31.28,NW,322,0.0,0.0,72,0.00,,---,0.00,VWS V14.01,2013-04-01 05:56:00,
2013-03-31 23:02:00,48.5,39.9,31.28,NNW,329,0.0,0.0,72,0.00,,---,0.00,VWS V14.01,2013-04-01 06:02:00,
2013-03-31 23:07:00,48.3,39.3,31.29,NNW,329,0.0,0.0,71,0.00,,---,0.00,VWS V14.01,2013-04-01 06:07:00,
2013-03-31 23:12:00,48.3,39.3,31.29,NNW,346,0.0,0.0,71,0.00,,---,0.00,VWS V14.01,2013-04-01 06:12:00,
2013-03-31 23:17:00,48.2,38.9,31.29,NW,322,0.0,0.0,70,0.00,,---,0.00,VWS V14.01,2013-04-01 06:17:00,
2013-03-31 23:22:00,48.2,38.5,31.29,NNW,336,0.0,0.0,69,0.00,,---,0.00,VWS V14.01,2013-04-01 06:22:00,
2013-03-31 23:27:00,48.2,38.2,31.29,North,355,0.0,0.0,68,0.00,,---,0.00,VWS V14.01,2013-04-01 06:27:00,
2013-03-31 23:33:00,48.2,38.2,31.29,North,355,0.0,0.0,68,0.00,,---,0.00,VWS V14.01,2013-04-01 06:33:00,
2013-03-31 23:38:00,48.2,38.2,31.29,NNW,346,0.0,0.0,68,0.00,,---,0.00,VWS V14.01,2013-04-01 06:38:00,
2013-03-31 23:43:00,48.2,38.5,31.29,NNW,336,0.0,0.0,69,0.00,,---,0.00,VWS V14.01,2013-04-01 06:43:00,
2013-03-31 23:48:00,48.2,38.9,31.29,NW,319,0.0,0.0,70,0.00,,---,0.00,VWS V14.01,2013-04-01 06:48:00,
2013-03-31 23:53:00,48.0,39.1,31.29,NNW,348,0.0,0.0,71,0.00,,---,0.00,VWS V14.01,2013-04-01 06:53:00,
2013-03-31 23:58:00,48.0,39.1,31.29,NNW,336,0.0,0.0,71,0.00,,---,0.00,VWS V14.01,2013-04-01 06:58:00,